This demonstration page uses our WeatherBlox Daily Observations layout. Learn more.

39.29038, -76.61219

Hourly Observations for October 31, 2020

Temp ( °F °C ) Dew Point ( °F °C ) Humidity (%) Winds ( mph kmh ) Pressure ( in mb ) Visibility ( mi km ) Precip ( " mm )
12:54 am 00:54 Mostly Cloudy 45 7.2 42 5.6 90 90 NW 5 7 30.34 1028 10 16.0934 0.01 0.254
1:54 am 01:54 Mostly Cloudy 45 7.2 40 4.4 83 83 NW 6 9 30.36 1028 10 16.0934 0 0
2:54 am 02:54 Mostly Cloudy 44 6.7 39 3.9 83 83 Calm 30.37 1029 10 16.0934 0 0
3:54 am 03:54 Mostly Cloudy 43 6.1 38 3.3 82 82 Calm 30.38 1029 10 16.0934 0 0
4:54 am 04:54 Mostly Cloudy 42 5.6 38 3.3 85 85 NNW 3 6 30.41 1030 10 16.0934 0 0
5:54 am 05:54 Mostly Cloudy 42 5.6 36 2.2 79 79 N 5 7 30.43 1030 10 16.0934 0 0
6:54 am 06:54 Mostly Clear 39 3.9 36 2.2 89 89 VRB 3 6 30.45 1031 10 16.0934 0 0
7:54 am 07:54 Partly Cloudy 37 2.8 35 1.7 93 93 Calm 30.48 1032 10 16.0934 0 0
8:54 am 08:54 Mostly Sunny 42 5.6 36 2.2 79 79 N 3 6 30.51 1033 10 16.0934 0 0
9:54 am 09:54 Mostly Cloudy 44 6.7 37 2.8 76 76 NE 6 9 30.53 1034 10 16.0934 0 0
10:52 am 10:52 Mostly Cloudy 46 8 36 2 66 66 ENE 6 9 30.54 1034 10 16.0934 0 0
10:54 am 10:54 Mostly Cloudy 47 8.3 35 1.7 63 63 NE 6 9 30.54 1034 10 16.0934 0 0
11:54 am 11:54 Mostly Cloudy 46 7.8 34 1.1 63 63 ESE 7 11 30.54 1034 10 16.0934 0 0
12:54 pm 12:54 Cloudy 47 8.3 33 0.6 59 59 ESE 9 15 30.53 1034 10 16.0934 0 0
1:54 pm 13:54 Cloudy 47 8.3 34 1.1 61 61 E 10 17 30.51 1033 10 16.0934 0 0
2:54 pm 14:54 Mostly Cloudy 48 8.9 34 1.1 58 58 ESE 9 15 30.49 1032 10 16.0934 0 0
3:54 pm 15:54 Cloudy 48 8.9 34 1.1 58 58 SE 6 9 30.47 1032 10 16.0934 0 0
4:54 pm 16:54 Mostly Cloudy 48 8.9 33 0.6 56 56 ESE 8 13 30.46 1031 10 16.0934 0 0
5:54 pm 17:54 Mostly Cloudy 47 8.3 34 1.1 61 61 ESE 6 9 30.43 1031 10 16.0934 0 0
6:54 pm 18:54 Mostly Cloudy 46 7.8 35 1.7 66 66 ESE 3 6 30.42 1030 10 16.0934 0 0
7:54 pm 19:54 Cloudy 46 7.8 36 2.2 68 68 Calm 30.42 1030 10 16.0934 0 0
8:54 pm 20:54 Cloudy 47 8.3 37 2.8 69 69 Calm 30.41 1030 10 16.0934 0 0
9:54 pm 21:54 Cloudy 46 7.8 38 3.3 73 73 ESE 5 7 30.39 1029 10 16.0934 0 0
10:54 pm 22:54 Cloudy 46 7.8 36 2.2 68 68 ESE 7 11 30.38 1029 10 16.0934 0 0
11:54 pm 23:54 Cloudy 45 7.2 38 3.3 77 77 E 3 6 30.36 1028 10 16.0934 0 0

Powered by AerisWeather